This is the latest recevied weather packets stored in our database for station/object KM6YFK-13. If no packets are shown the sender has not sent any weather packets the latest 10 day(s).
| Time | Temp. | Humidity | Pressure | Rain* | Wind** | Luminosity | Snow |
|---|---|---|---|---|---|---|---|
| 1777520607 | 23.89° C | 75% | 1013.5 hPa | 0 mm | - | 0 W/m² | - |
| 1777520309 | 23.89° C | 75% | 1013.4 hPa | 0 mm | - | 0 W/m² | - |
| 1777520008 | 23.89° C | 75% | 1013.4 hPa | 0 mm | - | 0 W/m² | - |
| 1777519709 | 23.89° C | 76% | 1013.3 hPa | 0 mm | - | 0 W/m² | - |
| 1777519408 | 23.89° C | 77% | 1013.3 hPa | 0 mm | - | 0 W/m² | - |
| 1777519109 | 23.89° C | 75% | 1013.2 hPa | 0 mm | - | 0 W/m² | - |
| 1777518808 | 23.89° C | 74% | 1013.3 hPa | 0 mm | - | 0 W/m² | - |
| 1777518507 | 24.44° C | 74% | 1013.3 hPa | 0 mm | - | 0 W/m² | - |
| 1777518208 | 24.44° C | 74% | 1013.4 hPa | 0 mm | - | 0 W/m² | - |
| 1777517908 | 24.44° C | 74% | 1013.4 hPa | 0 mm | - | 0 W/m² | - |
| 1777517608 | 24.44° C | 74% | 1013.3 hPa | 0 mm | - | 0 W/m² | - |
| 1777517308 | 24.44° C | 74% | 1013.2 hPa | 0 mm | - | 0 W/m² | - |
| 1777517008 | 24.44° C | 75% | 1013 hPa | 0 mm | - | 0 W/m² | - |
| 1777516708 | 24.44° C | 72% | 1013 hPa | 0 mm | - | 0 W/m² | - |
| 1777516407 | 24.44° C | 72% | 1013 hPa | 0 mm | - | 0 W/m² | - |
| 1777516110 | 24.44° C | 74% | 1013 hPa | 0 mm | - | 0 W/m² | - |
| 1777515809 | 24.44° C | 77% | 1013.1 hPa | 0 mm | - | 0 W/m² | - |
| 1777515507 | 24.44° C | 77% | 1013.2 hPa | 0 mm | - | 0 W/m² | - |
| 1777515207 | 24.44° C | 76% | 1013.1 hPa | 0 mm | - | 0 W/m² | - |
| 1777514907 | 24.44° C | 76% | 1013 hPa | 0 mm | - | 0 W/m² | - |
| 1777514608 | 24.44° C | 75% | 1013 hPa | 0 mm | - | 0 W/m² | - |
| 1777514308 | 25° C | 75% | 1013 hPa | 0 mm | - | 0 W/m² | - |
| 1777514008 | 25° C | 75% | 1012.9 hPa | 0 mm | - | 0 W/m² | - |
| 1777513709 | 25° C | 75% | 1012.9 hPa | 0 mm | - | 0 W/m² | - |
| 1777513407 | 25° C | 75% | 1013 hPa | 0 mm | - | 0 W/m² | - |
* Rain latest hour (hover to see other rain measurements)
** Current wind speed in m/s (hover to see current wind gust speed)